Location: Oberwangen
(47.4286°N, 8.9679°E)
Time: 15:25:09
(UTC+00:00)

Cosmos 1452 Rocket - Pass Details

Date: 20 June 2021
Orbit: 768 x 774 km, 74.1° (Epoch: 03 August)

Event Time Altitude Azimuth Distance (km) Brightness Sun altitude
Rises 20:12:01 0° 209° (SSW) 3,238 6.6 -6.8°
Reaches altitude 10° 20:14:25 10° 213° (SSW) 2,314 5.9 -7.1°
Maximum altitude 20:19:38 65° 295° (WNW) 850 4.0 -7.7°
Drops below altitude 10° 20:24:54 10° 17° (NNE) 2,327 6.5 -8.3°
Sets 20:27:19 0° 21° (NNE) 3,257 7.2 -8.6°
